STARLINK-31951, 59890

Orbit data source: Space-Track

STARLINK-31951, 59890 is a payload satellite owned by SpaceX/Seattle (US) in LEO that was launched on Tue, 28 May 2024 UTC via an FALCON 9 launch vehicle from the Air Force Eastern Test Range (AFETR). Payload-class satellites include a variety of spacecraft equipped with specific instruments for various scientific and technological missions. These include communications satellites like Starlink; space stations such as the ISS; scientific satellites like the Hubble; Earth observation satellites from companies like Planet Labs, Umbra, and HawkEye 360; GPS; miniature CubeSats for education and research; and military/defense satellites.

Loading next visibility...
Identifier
59890, 2024-100F
Orbit
LEO
Country
Flag of USUS
Related business
Manufacturer
SpaceX/Seattle
Mission
Operational Commercial Communications
Bus & Motor
STARLINK V2M, Unknown motor
Mass
730 kg wet, ~700 kg dry
Launch date (UTC)
2024-05-28 (2 years ago)
Launch vehicle
FALCON 9
Launch site
Air Force Eastern Test Range (AFETR)
Object type
Payload
Rocket body
Debris
Shape & HBR
Box + 2 Pan, 17.7 m
Radar Cross Section
33.884 m², Large (>1 m²)

Expand to show TLE details & history
Last TLE update: 13 hours ago

TLE from 13 hours ago
0 STARLINK-31951
1 59890U 24100F   26036.09049854  .00000361  00000-0  22634-4 0  9995
2 59890  43.0044 309.2983 0001229 278.8898  81.1814 15.27576251 96072
Epoch: 2026-02-05T02:10Z
TLE epoch observation values (Epoch: 2026-02-05T02:10:19.073Z)
Latitude
-0.00007°
Longitude
141.47104°
Altitude
482.707 km
Speed
7.626 km/s
True Right ascension
20h 37m 11s
True Declination
0° 00' 00"
Sunlit
Object was in daylight at epoch
Visualization orbit readout
Latitude
Unknown
Longitude
Unknown
Altitude
Unknown
Speed
Unknown
Apparent Right ascension
Unknown
Apparent Declination
Unknown
Sunlit
N/A
Visualization observer readout
Local Sidereal Time
17:15:29
Azimuth
Unknown
Elevation
Unknown
Doppler factor
Unknown
Orbital elements
Apogee altitude
485.848 km
Perigee altitude
484.161 km
Semi-major axis
6,863.142 km
Eccentricity
0.00012
Inclination
43.0044°
RAAN
309.2983°
Arg. of periapsis
278.8898°
True anomaly
81.19532°
Mean anomaly
81.1814°
Eccentric anomaly
81.18836°
Mean motion
3.81732 °/min
Orbital period
94.31 mins
BSTAR
0.000022634
Loading maneuver chart data...
Computing Atmospheric mass density...
Loading historical data...
Loading historical data...
Loading historical data...
Loading historical data...
Loading historical data...
Loading historical data...
Loading historical data...

Documentation

Showing up to 5 results
|